Location: Burtsch�tz
(51.0528°N, 12.1764°E)
Time: 07:27:46
(UTC+00:00)

FALCON 9 DEB - Pass Details

Date: 29 October 2020
Orbit: 378 x 394 km, 53.0° (Epoch: 01 December)

Event Time Altitude Azimuth Distance (km) Brightness Sun altitude
Rises 16:25:00 0° 229° (SW) 2,299 8.1 -6.0°
Reaches altitude 10° 16:27:07 10° 222° (SW) 1,441 6.8 -6.4°
Maximum altitude 16:30:12 42° 150° (SSE) 577 3.6 -6.8°
Drops below altitude 10° 16:33:15 10° 78° (ENE) 1,437 5.1 -7.3°
Enters shadow 16:33:17 10° 78° (ENE) 1,450 5.1 -7.3°
